Previsão horária em Abano Terme

Hoje, 17 Abril, Sábado

Tempo Temperatura Precipitação Vento Pressão Humidade
00:00 +7°C° 0 mm 1 m/s 762 mmHg 66%
01:00 +6°C° 0 mm 2 m/s 762 mmHg 68%
02:00 +6°C° 0 mm 2 m/s 762 mmHg 71%
03:00 +5°C° 0 mm 2 m/s 761 mmHg 73%
04:00 +5°C° 0 mm 2 m/s 761 mmHg 76%
05:00 +6°C° 0 mm 2 m/s 761 mmHg 75%
06:00 +6°C° 0 mm 2 m/s 761 mmHg 74%
07:00 +7°C° 0 mm 2 m/s 761 mmHg 73%
08:00 +8°C° 0 mm 2 m/s 761 mmHg 66%
09:00 +9°C° 0 mm 3 m/s 761 mmHg 60%
10:00 +11°C° 0 mm 3 m/s 761 mmHg 53%
11:00 +11°C° 0 mm 3 m/s 761 mmHg 51%
12:00 +13°C° 0 mm 2 m/s 760 mmHg 50%
13:00 +14°C° 0 mm 2 m/s 760 mmHg 48%
14:00 +14°C° 0 mm 2 m/s 759 mmHg 48%
15:00 +14°C° 0 mm 2 m/s 759 mmHg 48%
16:00 +14°C° 0 mm 1 m/s 759 mmHg 48%
17:00 +13°C° 0 mm 1 m/s 759 mmHg 53%
18:00 +12°C° 0 mm 1 m/s 759 mmHg 57%
19:00 +11°C° 0 mm 1 m/s 759 mmHg 62%
20:00 +10°C° 0 mm 1 m/s 759 mmHg 65%
21:00 +10°C° 0 mm 1 m/s 760 mmHg 68%
22:00 +9°C° 0 mm 1 m/s 760 mmHg 70%
23:00 +9°C° 0 mm 1 m/s 760 mmHg 70%

Amanhã, 18 Abril, Domingo

Tempo Temperatura Precipitação Vento Pressão Humidade
00:00 +8°C° 0 mm 2 m/s 760 mmHg 71%
01:00 +8°C° 0 mm 2 m/s 760 mmHg 71%
02:00 +8°C° 0 mm 2 m/s 760 mmHg 72%
03:00 +8°C° 0 mm 2 m/s 759 mmHg 73%
04:00 +8°C° 0 mm 2 m/s 759 mmHg 75%
05:00 +8°C° 0 mm 2 m/s 759 mmHg 74%
06:00 +10°C° 0 mm 1 m/s 759 mmHg 74%
07:00 +10°C° 0 mm 1 m/s 760 mmHg 74%
08:00 +11°C° 0 mm 1 m/s 760 mmHg 71%
09:00 +10°C° 0 mm 2 m/s 760 mmHg 68%
10:00 +12°C° 0 mm 2 m/s 760 mmHg 65%
11:00 +13°C° 0.1 mm 2 m/s 760 mmHg 61%
12:00 +14°C° 0.1 mm 2 m/s 760 mmHg 56%
13:00 +15°C° 0.1 mm 2 m/s 760 mmHg 52%
14:00 +15°C° 0 mm 2 m/s 759 mmHg 51%
15:00 +15°C° 0 mm 2 m/s 759 mmHg 51%
16:00 +15°C° 0 mm 2 m/s 759 mmHg 50%
17:00 +14°C° 0 mm 2 m/s 759 mmHg 57%
18:00 +13°C° 0 mm 2 m/s 759 mmHg 63%
19:00 +10°C° 0 mm 2 m/s 759 mmHg 70%
20:00 +10°C° 0 mm 2 m/s 760 mmHg 72%
21:00 +10°C° 0 mm 2 m/s 760 mmHg 75%
22:00 +10°C° 0 mm 1 m/s 760 mmHg 77%
23:00 +10°C° 0.2 mm 1 m/s 760 mmHg 79%

Depois de amanhã, 19 Abril, Segunda-feira

Tempo Temperatura Precipitação Vento Pressão Humidade
00:00 +10°C° 0.2 mm 1 m/s 760 mmHg 81%
01:00 +10°C° 0.2 mm 1 m/s 760 mmHg 83%
02:00 +9°C° 0.2 mm 1 m/s 760 mmHg 84%
03:00 +9°C° 0.2 mm 1 m/s 760 mmHg 86%
04:00 +9°C° 0.2 mm 1 m/s 760 mmHg 87%
05:00 +9°C° 0.1 mm 1 m/s 760 mmHg 86%
06:00 +9°C° 0.1 mm 1 m/s 760 mmHg 86%
07:00 +10°C° 0.1 mm 1 m/s 760 mmHg 85%
08:00 +10°C° 0 mm 1 m/s 760 mmHg 80%
09:00 +11°C° 0 mm 1 m/s 760 mmHg 75%
10:00 +12°C° 0 mm 1 m/s 760 mmHg 70%
11:00 +13°C° 0 mm 1 m/s 759 mmHg 66%
12:00 +14°C° 0 mm 2 m/s 759 mmHg 62%
13:00 +15°C° 0 mm 2 m/s 759 mmHg 58%
14:00 +15°C° 0 mm 2 m/s 758 mmHg 56%
15:00 +16°C° 0 mm 2 m/s 758 mmHg 55%
16:00 +16°C° 0 mm 2 m/s 757 mmHg 53%
17:00 +15°C° 0 mm 2 m/s 758 mmHg 58%
18:00 +14°C° 0 mm 2 m/s 758 mmHg 63%
19:00 +13°C° 0 mm 1 m/s 758 mmHg 68%
20:00 +12°C° 0 mm 2 m/s 758 mmHg 71%
21:00 +10°C° 0 mm 2 m/s 758 mmHg 74%
22:00 +9°C° 0 mm 2 m/s 758 mmHg 77%
23:00 +10°C° 0 mm 1 m/s 758 mmHg 79%

20 Abril, Terça-feira

Tempo Temperatura Precipitação Vento Pressão Humidade
00:00 +9°C° 0 mm 1 m/s 758 mmHg 81%
01:00 +9°C° 0 mm 1 m/s 758 mmHg 82%
02:00 +9°C° 0 mm 1 m/s 758 mmHg 83%
03:00 +8°C° 0 mm 1 m/s 758 mmHg 84%
04:00 +7°C° 0 mm 0 m/s 758 mmHg 86%
05:00 +8°C° 0 mm 0 m/s 758 mmHg 84%
06:00 +9°C° 0 mm 0 m/s 758 mmHg 82%
07:00 +9°C° 0 mm 0 m/s 759 mmHg 80%
08:00 +12°C° 0.1 mm 1 m/s 759 mmHg 75%
09:00 +13°C° 0.1 mm 1 m/s 759 mmHg 70%
10:00 +15°C° 0.1 mm 1 m/s 759 mmHg 65%
11:00 +15°C° 0.4 mm 1 m/s 759 mmHg 61%
12:00 +16°C° 0.4 mm 1 m/s 758 mmHg 58%
13:00 +17°C° 0.4 mm 2 m/s 758 mmHg 55%
14:00 +17°C° 0.4 mm 2 m/s 758 mmHg 55%
15:00 +17°C° 0.4 mm 2 m/s 758 mmHg 55%
16:00 +17°C° 0.4 mm 2 m/s 757 mmHg 55%
17:00 +16°C° 0.3 mm 2 m/s 758 mmHg 63%
18:00 +14°C° 0.3 mm 2 m/s 758 mmHg 71%
19:00 +12°C° 0.3 mm 3 m/s 758 mmHg 79%
20:00 +12°C° 0.1 mm 2 m/s 758 mmHg 82%
21:00 +10°C° 0.1 mm 2 m/s 759 mmHg 85%
22:00 +11°C° 0.1 mm 1 m/s 759 mmHg 87%
23:00 +10°C° 0.1 mm 2 m/s 759 mmHg 89%

21 Abril, Quarta-feira

Tempo Temperatura Precipitação Vento Pressão Humidade
00:00 +9°C° 0.1 mm 2 m/s 759 mmHg 90%
01:00 +9°C° 0.1 mm 2 m/s 759 mmHg 91%
02:00 +9°C° 0 mm 2 m/s 759 mmHg 91%
03:00 +9°C° 0 mm 2 m/s 759 mmHg 91%
04:00 +9°C° 0 mm 2 m/s 759 mmHg 92%
05:00 +9°C° 0 mm 2 m/s 759 mmHg 91%
06:00 +10°C° 0 mm 2 m/s 759 mmHg 89%
07:00 +10°C° 0 mm 2 m/s 759 mmHg 88%
08:00 +12°C° 0.1 mm 2 m/s 759 mmHg 83%
09:00 +14°C° 0.1 mm 2 m/s 759 mmHg 78%
10:00 +15°C° 0.1 mm 2 m/s 760 mmHg 73%
11:00 +16°C° 0.3 mm 2 m/s 759 mmHg 68%
12:00 +16°C° 0.3 mm 2 m/s 759 mmHg 64%
13:00 +17°C° 0.3 mm 2 m/s 759 mmHg 59%
14:00 +17°C° 0.3 mm 2 m/s 759 mmHg 59%
15:00 +18°C° 0.3 mm 1 m/s 758 mmHg 59%
16:00 +18°C° 0.3 mm 1 m/s 758 mmHg 59%
17:00 +16°C° 0.2 mm 2 m/s 758 mmHg 66%
18:00 +15°C° 0.2 mm 2 m/s 758 mmHg 74%
19:00 +13°C° 0.2 mm 2 m/s 759 mmHg 81%
20:00 +13°C° 0.1 mm 2 m/s 759 mmHg 82%
21:00 +12°C° 0.1 mm 1 m/s 759 mmHg 84%
22:00 +12°C° 0.1 mm 1 m/s 760 mmHg 85%
23:00 +11°C° 0 mm 1 m/s 760 mmHg 86%

22 Abril, Quinta-feira

Tempo Temperatura Precipitação Vento Pressão Humidade
00:00 +11°C° 0 mm 1 m/s 760 mmHg 87%
01:00 +11°C° 0 mm 1 m/s 759 mmHg 87%
02:00 +11°C° 0 mm 1 m/s 759 mmHg 88%
03:00 +11°C° 0 mm 1 m/s 759 mmHg 89%
04:00 +11°C° 0 mm 1 m/s 759 mmHg 89%
05:00 +11°C° 0 mm 1 m/s 759 mmHg 88%
06:00 +11°C° 0 mm 1 m/s 759 mmHg 87%
07:00 +12°C° 0 mm 1 m/s 760 mmHg 86%
08:00 +13°C° 0.1 mm 1 m/s 760 mmHg 83%
09:00 +13°C° 0.1 mm 1 m/s 760 mmHg 80%
10:00 +14°C° 0.1 mm 1 m/s 760 mmHg 77%
11:00 +15°C° 0.3 mm 1 m/s 759 mmHg 74%
12:00 +16°C° 0.3 mm 1 m/s 759 mmHg 71%
13:00 +16°C° 0.3 mm 2 m/s 759 mmHg 69%
14:00 +16°C° 0.8 mm 2 m/s 758 mmHg 68%
15:00 +17°C° 0.8 mm 2 m/s 758 mmHg 67%
16:00 +17°C° 0.8 mm 2 m/s 758 mmHg 66%
17:00 +16°C° 1.5 mm 3 m/s 758 mmHg 72%
18:00 +13°C° 1.5 mm 3 m/s 758 mmHg 78%
19:00 +12°C° 1.5 mm 3 m/s 758 mmHg 85%
20:00 +10°C° 2.4 mm 5 m/s 759 mmHg 87%
21:00 +8°C° 2.4 mm 7 m/s 760 mmHg 89%
22:00 +6°C° 2.4 mm 9 m/s 761 mmHg 91%
23:00 +6°C° 4.1 mm 8 m/s 762 mmHg 92%
Mostrar mais

Necessitamos do seu Consentimento

A Meteoprog e os seus Fornecedores de Serviços podem armazenar e aceder a dados pessoais como cookies, identificadores do dispositivo ou outras tecnologias semelhantes existentes no seu dispositivo e processar estes dados para personalizar conteúdos e anúncios, assim como funcionalidades nas redes sociais e análise de tráfego.

  • Armazenar e/ou aceder a informações no seu dispositivo

    Os cookies, identificadores do dispositivo ou outras informações podem ser armazenados ou acedidos no seu dispositivo, para os fins acima indicados.

  • Anúncios e conteúdos personalizados, medição de anúncios e conteúdos, dados sobre o público-alvo e desenvolvimento de produtos

    Os anúncios e os conteúdos podem ser personalizados com base num perfil. Podem ser adicionados dados adicionais para uma maior personalização dos anúncios e dos conteúdos. A eficácia dos anúncios e dos conteúdos pode ser medida. Podem ser obtidas informações sobre o público que visualizou os anúncios e os conteúdos. Estes dados podem ser usados para desenvolver ou melhorar sistemas, softwares ou a experiência do utilizador.

Ao clicar em "Eu concordo”, permitirá o uso de cookies, identificadores do dispositivo e web beacons mencionados ou outras tecnologias semelhantes. As configurações do navegador do seu dispositivo podem ser alteradas.

Para certos fins, podem ser invocados interesses legítimos ao invés de consentimento. Pode ler mais informação sobre este assunto na nossa Política de Privacidade e Cookies.